Weather History for KDTL - April, 2014

Change the Weather History Date:

Thursday, April 3, 2014

  Actual Average Record
Temperature  
Mean Temperature 32 °F -  
Max Temperature 33 °F 44 °F 67 °F (1991)
Min Temperature 32 °F 23 °F -11 °F (1975)
Degree Days  
Heating Degree Days 32    
Moisture  
Dew Point 29 °F    
Average Humidity 89    
Maximum Humidity 100    
Minimum Humidity 75    
Precipitation  
Precipitation 0.00 in - - ()
Sea Level Pressure  
Sea Level Pressure 29.99 in    
Wind  
Wind Speed 7 mph (East)    
Max Wind Speed 12 mph    
Max Gust Speed -    
Visibility 8 miles    
Events Rain , Snow    
Averages and records for this station are not official NWS values.
T = Trace of Precipitation, MM = Missing Value Source: NWS Daily Summary

Daily Weather History Graph

Daily Weather History Graph

Search for Another Location

Airport or City:

Trip Planner

Search our weather history database for the weather conditions in past years. The results will help you decide how hot, cold, wet, or windy it might be!

Date:

Astronomy

Apr. 03, 2014 Rise Set
Actual Time 6:58 AM CDT 7:55 PM CDT
Civil Twilight 6:28 AM CDT 8:26 PM CDT
Nautical Twilight 5:51 AM CDT 9:03 PM CDT
Astronomical Twilight 5:12 AM CDT 9:42 PM CDT
Moon 9:16 AM CDT (4/3) No Moon Set
Length of Visible Light 13h 58m
Length of Day
12h 56m
Waxing Crescent, 17% of the Moon is Illuminated
Apr 3
Waxing Crescent
Apr 7
First Quarter
Apr 15
Full
Apr 22
Last Quarter
Apr 29
New

Hourly Weather History & Observations

Time (CDT) Temp. Windchill Dew Point Humidity Pressure Visibility Wind Dir Wind Speed Gust Speed Precip Events Conditions
12:15 AM 32.0 °F 24.2 °F 26.6 °F 80% 30.11 in 10.0 mi ESE 9.2 mph - N/A   Clear
12:35 AM 32.0 °F 27.5 °F 26.6 °F 80% 30.10 in 10.0 mi East 4.6 mph - N/A   Clear
12:54 AM 32.0 °F 24.8 °F 28.4 °F 87% 30.09 in 10.0 mi East 8.1 mph - N/A   Clear
1:15 AM 32.0 °F 26.4 °F 28.4 °F 87% 30.09 in 10.0 mi East 5.8 mph - N/A   Clear
1:35 AM 32.0 °F 25.6 °F 28.4 °F 87% 30.07 in 10.0 mi East 6.9 mph - N/A   Clear
1:54 AM 32.0 °F 26.4 °F 28.4 °F 87% 30.07 in 10.0 mi East 5.8 mph - N/A Snow Light Snow
2:15 AM 32.0 °F 25.6 °F 28.4 °F 87% 30.06 in 10.0 mi ESE 6.9 mph - N/A   Clear
2:35 AM 32.0 °F 24.2 °F 28.4 °F 87% 30.05 in 10.0 mi ESE 9.2 mph - N/A   Clear
2:54 AM 32.0 °F 24.8 °F 28.4 °F 87% 30.05 in 10.0 mi ESE 8.1 mph - N/A   Clear
3:15 AM 32.0 °F 24.8 °F 28.4 °F 87% 30.03 in 10.0 mi East 8.1 mph - N/A   Clear
3:35 AM 32.0 °F 25.6 °F 28.4 °F 87% 30.03 in 10.0 mi East 6.9 mph - N/A   Clear
3:55 AM 32.0 °F 25.6 °F 28.4 °F 87% 30.01 in 10.0 mi East 6.9 mph - N/A   Clear
4:15 AM 32.0 °F 24.2 °F 28.4 °F 87% 30.01 in 10.0 mi ESE 9.2 mph - N/A   Clear
4:35 AM 32.0 °F 23.0 °F 28.4 °F 87% 30.00 in 10.0 mi ESE 11.5 mph - N/A   Clear
4:55 AM 32.0 °F 25.6 °F 28.4 °F 87% 30.01 in 10.0 mi ESE 6.9 mph - N/A   Clear
5:15 AM 32.0 °F 25.6 °F 28.4 °F 87% 30.01 in 10.0 mi ESE 6.9 mph - N/A   Clear
5:35 AM 32.0 °F 24.8 °F 30.2 °F 93% 30.02 in 10.0 mi SE 8.1 mph - N/A   Clear
5:55 AM 32.0 °F 24.2 °F 28.4 °F 87% 30.02 in 10.0 mi ESE 9.2 mph - N/A   Clear
6:15 AM 32.0 °F 24.8 °F 28.4 °F 87% 30.02 in 10.0 mi ESE 8.1 mph - N/A   Clear
6:35 AM 32.0 °F 24.2 °F 28.4 °F 87% 30.01 in 10.0 mi ESE 9.2 mph - N/A   Clear
6:55 AM 32.0 °F 24.8 °F 28.4 °F 87% 30.01 in 10.0 mi ESE 8.1 mph - N/A   Clear
7:14 AM 32.0 °F 24.8 °F 30.2 °F 93% 30.02 in 10.0 mi SE 8.1 mph - N/A   Clear
7:35 AM 32.0 °F 24.8 °F 30.2 °F 93% 30.02 in 10.0 mi ESE 8.1 mph - N/A   Scattered Clouds
7:55 AM 32.0 °F 27.5 °F 30.2 °F 93% 30.01 in 10.0 mi East 4.6 mph - N/A   Mostly Cloudy
8:14 AM 32.0 °F 26.4 °F 30.2 °F 93% 30.01 in 10.0 mi ESE 5.8 mph - N/A   Scattered Clouds
8:35 AM 32.0 °F 28.7 °F 30.2 °F 93% 30.01 in 10.0 mi East 3.5 mph - N/A   Clear
8:54 AM 32.0 °F 28.7 °F 28.4 °F 87% 30.01 in 10.0 mi ESE 3.5 mph - N/A   Clear
9:15 AM 33.8 °F 27.7 °F 28.4 °F 81% 30.01 in 10.0 mi ESE 6.9 mph - N/A   Clear
9:35 AM 33.8 °F 27.7 °F 28.4 °F 81% 30.00 in 10.0 mi ESE 6.9 mph - N/A   Light Drizzle
9:54 AM 33.8 °F 28.6 °F 28.4 °F 81% 30.00 in 10.0 mi East 5.8 mph - N/A Rain Light Rain
10:15 AM 33.8 °F 28.6 °F 28.4 °F 81% 30.00 in 10.0 mi East 5.8 mph - N/A Rain Light Rain
10:35 AM 33.8 °F 27.0 °F 26.6 °F 75% 29.99 in 10.0 mi ESE 8.1 mph - N/A Rain Light Rain
10:54 AM 33.8 °F 27.0 °F 26.6 °F 75% 29.99 in 10.0 mi East 8.1 mph - N/A Rain Light Rain
11:15 AM 33.8 °F 25.8 °F 26.6 °F 75% 29.99 in 10.0 mi ESE 10.4 mph - N/A Rain Light Rain
11:35 AM 33.8 °F 28.6 °F 26.6 °F 75% 30.00 in 10.0 mi East 5.8 mph - N/A   Scattered Clouds
11:54 AM 33.8 °F 26.4 °F 26.6 °F 75% 29.99 in 10.0 mi East 9.2 mph - N/A   Light Drizzle
12:15 PM 33.8 °F 26.4 °F 26.6 °F 75% 29.99 in 7.0 mi ESE 9.2 mph - N/A   Drizzle
12:35 PM 33.8 °F 28.6 °F 26.6 °F 75% 29.98 in 5.0 mi ESE 5.8 mph - N/A Snow Light Snow
12:54 PM 33.8 °F 26.4 °F 28.4 °F 81% 29.98 in 5.0 mi SE 9.2 mph - N/A Snow Light Snow
1:15 PM 32.0 °F 26.4 °F 28.4 °F 87% 29.97 in 5.0 mi East 5.8 mph - N/A Snow Light Snow
1:35 PM 32.0 °F 27.5 °F 30.2 °F 93% 29.97 in 3.0 mi East 4.6 mph - N/A Snow Light Snow
1:54 PM 32.0 °F 28.7 °F 30.2 °F 93% 29.97 in 2.0 mi East 3.5 mph - N/A Snow Light Snow
2:15 PM 32.0 °F 25.6 °F 30.2 °F 93% 29.96 in 1.2 mi East 6.9 mph - N/A Snow Light Snow
2:35 PM 32.0 °F 25.6 °F 32.0 °F 100% 29.95 in 1.0 mi ENE 6.9 mph - N/A Snow Light Snow
2:54 PM 32.0 °F 25.6 °F 32.0 °F 100% 29.95 in 1.2 mi East 6.9 mph - N/A Snow Light Snow
3:15 PM 32.0 °F 24.8 °F 32.0 °F 100% 29.95 in 1.8 mi East 8.1 mph - N/A Snow Light Snow
3:35 PM 32.0 °F 24.8 °F 32.0 °F 100% 29.94 in 2.5 mi East 8.1 mph - N/A Rain Light Rain
3:54 PM 32.0 °F 26.4 °F 32.0 °F 100% 29.93 in 4.0 mi East 5.8 mph - N/A Rain Light Rain
4:15 PM 32.0 °F 26.4 °F 32.0 °F 100% 29.93 in 1.5 mi East 5.8 mph - N/A   Overcast
4:35 PM 32.0 °F 25.6 °F 32.0 °F 100% 29.93 in 3.0 mi East 6.9 mph - N/A Rain Light Rain
4:54 PM 32.0 °F 25.6 °F 32.0 °F 100% 29.93 in 2.5 mi ENE 6.9 mph - N/A Rain Light Rain
5:15 PM 32.0 °F 26.4 °F 32.0 °F 100% 29.94 in 2.0 mi ENE 5.8 mph - N/A   Overcast
5:34 PM 32.0 °F 26.4 °F 32.0 °F 100% 29.94 in 1.8 mi ENE 5.8 mph - N/A Rain Rain
5:55 PM 32.0 °F 27.5 °F 30.2 °F 93% 29.94 in 4.0 mi East 4.6 mph - N/A   Light Drizzle
6:15 PM 32.0 °F 27.5 °F 32.0 °F 100% 29.94 in 2.0 mi East 4.6 mph - N/A   Overcast
6:34 PM 32.0 °F 28.7 °F 32.0 °F 100% 29.94 in 4.0 mi East 3.5 mph - N/A   Overcast
6:55 PM 32.0 °F 27.5 °F 32.0 °F 100% 29.95 in 4.0 mi East 4.6 mph - N/A   Overcast
7:15 PM 32.0 °F - 32.0 °F 100% 29.95 in 2.0 mi Calm Calm - N/A Snow Light Snow
7:34 PM 32.0 °F - 32.0 °F 100% 29.95 in 3.0 mi Calm Calm - N/A Snow Light Snow
7:55 PM 32.0 °F - 32.0 °F 100% 29.95 in 2.5 mi Calm Calm - N/A Snow Light Snow
8:15 PM 32.0 °F 26.4 °F 30.2 °F 93% 29.96 in 10.0 mi ENE 5.8 mph - N/A   Mostly Cloudy
8:34 PM 32.0 °F 25.6 °F 28.4 °F 87% 29.95 in 10.0 mi ENE 6.9 mph - N/A Snow Light Snow
8:55 PM 32.0 °F 27.5 °F 28.4 °F 87% 29.95 in 10.0 mi NE 4.6 mph - N/A Snow Light Snow
9:15 PM 32.0 °F 25.6 °F 28.4 °F 87% 29.95 in 10.0 mi NNE 6.9 mph - N/A   Mostly Cloudy
9:34 PM 32.0 °F 26.4 °F 28.4 °F 87% 29.95 in 10.0 mi NNE 5.8 mph - N/A   Overcast
10:55 PM 32.0 °F 27.5 °F 28.4 °F 87% 29.94 in 10.0 mi NE 4.6 mph - N/A   Overcast
11:14 PM 32.0 °F 27.5 °F 28.4 °F 87% 29.94 in 10.0 mi NNE 4.6 mph - N/A   Mostly Cloudy
11:35 PM 32.0 °F 27.5 °F 28.4 °F 87% 29.94 in 10.0 mi NNE 4.6 mph - N/A   Mostly Cloudy
11:55 PM 32.0 °F 28.7 °F 28.4 °F 87% 29.94 in 10.0 mi North 3.5 mph - N/A   Mostly Cloudy